This is the latest recevied weather packets stored in our database for station/object DL9GRB-13. If no packets are shown the sender has not sent any weather packets the latest 10 day(s).
| Time | Temp. | Humidity | Pressure | Rain* | Wind** | Luminosity | Snow |
|---|---|---|---|---|---|---|---|
| 1777439106 | 2.78° C | 95% | 1028.5 hPa | 0 mm | - | 84 W/m² | - |
| 1777438926 | 2.22° C | 96% | 1028.6 hPa | 0 mm | - | 83 W/m² | - |
| 1777438746 | 1.67° C | 96% | 1028.3 hPa | 0 mm | - | 80 W/m² | - |
| 1777438566 | 1.11° C | 97% | 1028.5 hPa | 0 mm | - | 77 W/m² | - |
| 1777438386 | 0.56° C | 96% | 1028.3 hPa | 0 mm | - | 73 W/m² | - |
| 1777438206 | 0° C | 96% | 1028.3 hPa | 0 mm | - | 69 W/m² | - |
| 1777438026 | -0.56° C | 95% | 1028.5 hPa | 0 mm | - | 63 W/m² | - |
| 1777437846 | -0.56° C | 95% | 1028.5 hPa | 0 mm | - | 42 W/m² | - |
| 1777437666 | -0.56° C | 95% | 1028.4 hPa | 0 mm | - | 26 W/m² | - |
| 1777437486 | -0.56° C | 95% | 1028.2 hPa | 0 mm | - | 25 W/m² | - |
| 1777437306 | -0.56° C | 95% | 1028.3 hPa | 0 mm | - | 24 W/m² | - |
| 1777437126 | -0.56° C | 95% | 1028.2 hPa | 0 mm | - | 23 W/m² | - |
| 1777436946 | -0.56° C | 95% | 1028.5 hPa | 0 mm | - | 21 W/m² | - |
| 1777436766 | -0.56° C | 95% | 1028.3 hPa | 0 mm | - | 20 W/m² | - |
| 1777436586 | -0.56° C | 95% | 1028.4 hPa | 0 mm | - | 19 W/m² | - |
| 1777436406 | -1.11° C | 95% | 1028.4 hPa | 0 mm | - | 18 W/m² | - |
| 1777436226 | -1.11° C | 95% | 1028.4 hPa | 0 mm | - | 17 W/m² | - |
| 1777436046 | -1.11° C | 94% | 1028.5 hPa | 0 mm | - | 15 W/m² | - |
| 1777435866 | -1.11° C | 94% | 1028.4 hPa | 0 mm | - | 14 W/m² | - |
| 1777435686 | -1.11° C | 94% | 1028.3 hPa | 0 mm | - | 13 W/m² | - |
| 1777435506 | -1.11° C | 94% | 1028.4 hPa | 0 mm | - | 12 W/m² | - |
| 1777435326 | -1.11° C | 94% | 1028.4 hPa | 0 mm | - | 10 W/m² | - |
| 1777435146 | -1.11° C | 94% | 1028.4 hPa | 0 mm | - | 9 W/m² | - |
| 1777434966 | -1.11° C | 94% | 1028.4 hPa | 0 mm | - | 8 W/m² | - |
| 1777434786 | -1.11° C | 94% | 1028.4 hPa | 0 mm | - | 7 W/m² | - |
* Rain latest hour (hover to see other rain measurements)
** Current wind speed in m/s (hover to see current wind gust speed)